TimeMST,TemperatureF,Dew PointF,Humidity,Sea Level PressureIn,VisibilityMPH,Wind Direction,Wind SpeedMPH,Gust SpeedMPH,PrecipitationIn,Events,Conditions,WindDirDegrees,DateUTC
12:56 AM,12.0,8.1,84,30.15,6.0,Calm,Calm,-,N/A,,Clear,0,2013-03-08 07:56:00
1:56 AM,10.0,8.1,92,30.14,5.0,NE,3.5,-,N/A,,Clear,40,2013-03-08 08:56:00
2:56 AM,9.0,7.0,92,30.12,5.0,Calm,Calm,-,N/A,,Clear,0,2013-03-08 09:56:00
3:56 AM,7.0,5.0,92,30.13,4.0,Calm,Calm,-,N/A,,Clear,0,2013-03-08 10:56:00
4:03 AM,6.8,3.2,85,29.97,4.0,NNE,6.9,-,N/A,,Scattered Clouds,30,2013-03-08 11:03:00
4:06 AM,6.8,5.0,92,29.97,2.5,NNE,5.8,-,N/A,,Mostly Cloudy,20,2013-03-08 11:06:00
4:14 AM,8.6,6.8,92,29.97,0.8,North,4.6,-,N/A,,Mist,10,2013-03-08 11:14:00
4:26 AM,8.6,8.6,100,29.97,1.8,NNE,3.5,-,N/A,,Overcast,20,2013-03-08 11:26:00
4:33 AM,10.4,8.6,92,29.97,3.0,Calm,Calm,-,N/A,,Overcast,0,2013-03-08 11:33:00
4:52 AM,12.2,10.4,92,29.96,2.0,Calm,Calm,-,N/A,,Overcast,0,2013-03-08 11:52:00
4:56 AM,12.0,10.0,92,30.11,2.5,Calm,Calm,-,N/A,,Overcast,0,2013-03-08 11:56:00
5:07 AM,12.2,10.4,92,29.96,1.0,Calm,Calm,-,N/A,,Mist,0,2013-03-08 12:07:00
5:16 AM,12.2,10.4,92,29.96,0.5,Calm,Calm,-,N/A,Fog,Light Freezing Fog,0,2013-03-08 12:16:00
5:36 AM,14.0,12.2,93,29.95,0.2,SE,3.5,-,N/A,Fog,Light Freezing Fog,130,2013-03-08 12:36:00
5:56 AM,14.0,12.9,95,30.11,0.2,SE,4.6,-,N/A,Fog,Light Freezing Fog,130,2013-03-08 12:56:00
6:56 AM,15.1,12.9,91,30.11,0.2,SE,4.6,-,N/A,Fog,Light Freezing Fog,140,2013-03-08 13:56:00
7:56 AM,16.0,14.0,92,30.11,0.2,Calm,Calm,-,N/A,Fog,Light Freezing Fog,0,2013-03-08 14:56:00
8:56 AM,16.0,14.0,92,30.11,0.2,SSW,3.5,-,N/A,Fog,Light Freezing Fog,200,2013-03-08 15:56:00
9:47 AM,17.6,15.8,93,29.93,0.2,Calm,Calm,-,N/A,Fog,Light Freezing Fog,0,2013-03-08 16:47:00
9:56 AM,18.0,16.0,92,30.10,0.2,Calm,Calm,-,N/A,Fog,Light Freezing Fog,0,2013-03-08 16:56:00
10:56 AM,19.9,18.0,92,30.09,0.2,SE,4.6,-,N/A,Fog,Light Freezing Fog,130,2013-03-08 17:56:00
11:53 AM,23.0,21.2,93,29.91,0.8,ESE,3.5,-,N/A,,Mist,120,2013-03-08 18:53:00
11:56 AM,23.0,21.0,92,30.06,1.0,ESE,3.5,-,N/A,,Mist,110,2013-03-08 18:56:00
12:06 PM,24.8,21.2,86,29.91,0.8,Calm,Calm,-,N/A,,Mist,0,2013-03-08 19:06:00
12:13 PM,24.8,21.2,86,29.91,2.5,ESE,3.5,-,N/A,,Overcast,120,2013-03-08 19:13:00
12:20 PM,24.8,21.2,86,29.91,3.0,East,3.5,-,N/A,,Overcast,90,2013-03-08 19:20:00
12:56 PM,27.0,23.0,85,30.04,9.0,SE,4.6,-,N/A,,Mostly Cloudy,140,2013-03-08 19:56:00
1:05 PM,28.4,24.8,86,29.89,9.0,SSE,3.5,-,N/A,,Scattered Clouds,150,2013-03-08 20:05:00
1:56 PM,28.9,25.0,85,30.02,10.0,SE,5.8,-,N/A,,Partly Cloudy,140,2013-03-08 20:56:00
2:56 PM,30.0,25.0,82,30.01,10.0,SSE,3.5,-,N/A,,Clear,150,2013-03-08 21:56:00
3:56 PM,34.0,23.0,64,30.01,10.0,SSE,5.8,-,N/A,,Clear,160,2013-03-08 22:56:00
4:56 PM,35.1,24.1,64,29.99,10.0,SSE,5.8,-,N/A,,Clear,160,2013-03-08 23:56:00
5:56 PM,32.0,24.1,73,30.00,10.0,SE,3.5,-,N/A,,Clear,140,2013-03-09 00:56:00
6:56 PM,28.0,21.9,78,30.02,10.0,SE,5.8,-,N/A,,Clear,130,2013-03-09 01:56:00
7:56 PM,27.0,24.1,89,30.04,10.0,SSE,8.1,-,N/A,,Clear,160,2013-03-09 02:56:00
8:56 PM,26.1,23.0,88,30.06,10.0,South,3.5,-,N/A,,Partly Cloudy,170,2013-03-09 03:56:00
9:56 PM,27.0,23.0,85,30.05,10.0,SW,5.8,-,N/A,,Overcast,230,2013-03-09 04:56:00
10:56 PM,27.0,23.0,85,30.05,10.0,WSW,3.5,-,N/A,,Overcast,250,2013-03-09 05:56:00
11:56 PM,25.0,19.0,78,30.06,10.0,West,6.9,-,N/A,,Scattered Clouds,280,2013-03-09 06:56:00